Location: Peterborough
(44.3091°N, 78.3197°W)
Time: 05:22:21
(UTC-04:00)

S-56A Canister/Altair - All Passes

Search period start: 22 March 2023 00:00
Search period end: 01 April 2023 00:00
Orbit: 638 x 2493 km, 38.9° (Epoch: 22 March)

Date Brightness Start Highest point End Pass type
(mag) Time Alt. Az. Time Alt. Az. Time Alt. Az.
22 Mar - 00:08:19 10° W 00:23:05 70° S 00:36:51 10° ESE visible
22 Mar - 02:14:48 10° W 02:28:57 50° SSW 02:40:37 10° SE visible
22 Mar - 04:23:26 10° W 04:32:42 21° SW 04:40:30 10° S visible
22 Mar - 19:27:45 10° SSW 19:38:00 35° SE 19:50:30 10° E daylight
22 Mar - 21:29:58 10° WSW 21:42:54 62° SSE 21:57:40 10° E visible
22 Mar - 23:34:51 10° W 23:49:20 71° S 00:03:35 10° ESE visible
23 Mar - 01:41:03 10° W 01:55:27 54° SSW 02:07:48 10° SE visible
23 Mar - 03:49:03 10° W 03:59:37 25° SW 04:08:31 10° S night (unlit)
23 Mar - 18:55:23 10° SSW 19:04:48 31° SE 19:16:27 10° E daylight
23 Mar - 20:57:00 10° SW 21:09:18 59° SSE 21:24:00 10° E visible
23 Mar - 23:01:29 10° W 23:15:35 71° S 23:30:12 10° ESE visible
24 Mar - 01:07:23 10° W 01:21:53 57° SSW 01:34:51 10° SE visible
24 Mar - 03:14:52 10° W 03:26:27 29° SW 03:36:18 10° S visible
24 Mar - 18:23:11 10° S 18:31:42 27° SE 18:42:16 10° E daylight
24 Mar - 20:24:07 10° SW 20:35:47 56° SSE 20:50:14 10° E visible
24 Mar - 22:28:13 10° WSW 22:41:51 71° S 22:56:43 10° E visible
25 Mar - 00:33:48 10° W 00:48:15 60° SSW 01:01:47 10° SE visible
25 Mar - 02:40:50 10° W 02:53:12 33° SW 03:03:54 10° SSE visible
25 Mar - 17:51:10 10° S 17:58:41 23° SE 18:07:56 10° E daylight
25 Mar - 19:51:22 10° SW 20:02:20 52° SSE 20:16:25 10° E visible
25 Mar - 21:55:01 10° WSW 22:08:08 71° S 22:23:08 10° E visible
26 Mar - 00:00:19 10° W 00:14:35 63° SSW 00:28:37 10° ESE visible
26 Mar - 02:06:55 10° W 02:19:52 37° SW 02:31:21 10° SSE visible
26 Mar - 04:20:04 10° WSW 04:23:00 11° WSW 04:25:50 10° SW night (unlit)
26 Mar - 17:19:25 10° SSE 17:25:45 18° SE 17:33:24 10° E daylight
26 Mar - 19:18:42 10° SW 19:28:59 48° SSE 19:42:32 10° E daylight
26 Mar - 21:21:57 10° WSW 21:34:27 70° S 21:49:30 10° E visible
26 Mar - 23:26:55 10° W 23:40:53 65° SSW 23:55:20 10° ESE visible
27 Mar - 01:33:09 10° W 01:46:27 40° SW 01:58:39 10° SSE visible
27 Mar - 03:43:43 10° W 03:49:59 14° SW 03:55:50 10° SSW night (unlit)
27 Mar - 16:48:05 10° SSE 16:52:55 15° SE 16:58:30 10° E daylight
27 Mar - 18:46:09 10° SW 18:55:43 44° SSE 19:08:34 10° E daylight
27 Mar - 20:48:58 10° WSW 21:00:50 68° S 21:15:45 10° E visible
27 Mar - 22:53:37 10° W 23:07:10 67° SSW 23:21:55 10° ESE visible
28 Mar - 00:59:29 10° W 01:12:58 44° SSW 01:25:48 10° SSE visible
28 Mar - 03:08:41 10° W 03:16:53 17° SW 03:24:29 10° SSW visible
28 Mar - 16:17:55 10° SE 16:20:09 11° ESE 16:22:32 10° ESE daylight
28 Mar - 18:13:43 10° SSW 18:22:34 39° SE 18:34:34 10° E daylight
28 Mar - 20:16:04 10° WSW 20:27:17 66° SSE 20:41:57 10° E visible
28 Mar - 22:20:25 10° W 22:33:28 68° S 22:48:25 10° ESE visible
29 Mar - 00:25:56 10° W 00:39:25 47° SSW 00:52:48 10° SE visible
29 Mar - 02:34:10 10° W 02:43:41 21° SW 02:52:38 10° S visible
29 Mar - 17:41:24 10° SSW 17:49:30 34° SE 18:00:31 10° E daylight
29 Mar - 19:43:17 10° WSW 19:53:49 63° SSE 20:08:06 10° E visible
29 Mar - 21:47:18 10° W 21:59:48 69° S 22:14:49 10° ESE visible
29 Mar - 23:52:30 10° W 00:05:50 51° SSW 00:19:42 10° SE visible
30 Mar - 01:59:57 10° W 02:10:27 24° SW 02:20:28 10° S visible
30 Mar - 17:09:13 10° SSW 17:16:33 29° SE 17:26:25 10° E daylight
30 Mar - 19:10:33 10° WSW 19:20:26 60° SSE 19:34:12 10° E daylight
30 Mar - 21:14:15 10° W 21:26:09 70° S 21:41:07 10° ESE visible
30 Mar - 23:19:09 10° W 23:32:14 53° SSW 23:46:28 10° SE visible
31 Mar - 01:25:58 10° W 01:37:08 27° SW 01:48:04 10° S visible
31 Mar - 16:37:10 10° S 16:43:40 25° SE 16:52:14 10° E daylight
31 Mar - 18:37:56 10° SW 18:47:08 56° SSE 19:00:17 10° E daylight
31 Mar - 20:41:19 10° W 20:52:34 70° S 21:07:21 10° ESE visible
31 Mar - 22:45:55 10° W 22:58:37 56° SSW 23:13:06 10° SE visible
